Track COSMOS 2426 (GLONASS) now! COSMOS 2426 (GLONASS) is classified as:
1 29671U 06062B 26094.90538368 .00000018 00000-0 00000-0 0 9991 2 29671 64.6986 196.9736 0021808 181.1016 206.8004 2.12963705149991